DW9123 Weather Reports


time (UTC)temp
C
wind
direction
speed
KPH
gust
KPH
rain 1hr
cm
rain 24hr
cm
rain mn
cm
humidity
%
barometer
mb
20260503180033 16 165 6.4 20.9 0.00 0.00 0.00 39 1010.9
20260503174528 16 215 1.6 17.7 0.00 0.00 0.00 41 1011.0
20260503173039 16 360 9.7 29.0 0.00 0.00 0.00 42 1011.5
20260503171528 15 169 3.2 22.5 0.00 0.00 0.00 42 1011.6
20260503081502 -17 0.0 0.0 0.00 0.00 0.00 1015.4
20260503071557 -17 0.0 0.0 0.00 0.00 0.00 1015.4
20260503054522 -17 0.0 0.0 0.00 0.00 0.00 1015.8
20260503053018 -17 0.0 0.0 0.00 0.00 0.00 1016.0
20260503051513 -17 0.0 0.0 0.00 0.00 0.00 1016.1
20260503050010 1 360 0.0 0.0 0.00 0.00 0.00 87 1016.2
20260503044517 1 360 0.0 0.0 0.00 0.00 0.00 87 1016.3
20260503043006 1 360 0.0 0.0 0.00 0.00 0.00 86 1016.3
20260503041503 1 360 0.0 0.0 0.00 0.00 0.00 85 1016.3
20260503040110 1 360 0.0 0.0 0.00 0.00 0.00 84 1016.5
20260503034600 1 360 0.0 0.0 0.00 0.00 0.00 83 1016.5
20260503033110 2 360 0.0 0.0 0.00 0.00 0.00 83 1016.6
20260503031605 2 360 0.0 0.0 0.00 0.00 0.00 83 1016.6
20260503030057 2 360 0.0 0.0 0.00 0.00 0.00 81 1016.7
20260503024557 2 360 0.0 0.0 0.00 0.00 0.00 80 1016.7
20260503023104 3 360 0.0 0.0 0.00 0.00 0.00 77 1016.9
20260503021606 3 360 0.0 0.0 0.00 0.00 0.00 73 1016.8
20260503020104 3 360 0.0 0.0 0.00 0.00 0.00 73 1016.8
20260503014555 4 360 0.0 0.0 0.00 0.00 0.00 69 1016.8
20260503013105 5 360 0.0 0.0 0.00 0.00 0.00 68 1016.7
20260503011604 5 360 0.0 0.0 0.00 0.00 0.00 58 1016.6
20260503010058 6 360 0.0 0.0 0.00 0.00 0.00 59 1016.6
20260503004554 7 360 0.0 0.0 0.00 0.00 0.00 53 1016.5
20260503003101 7 360 0.0 0.0 0.00 0.00 0.00 49 1016.5
20260503001551 8 360 0.0 0.0 0.00 0.00 0.00 47 1016.5
20260502234550 8 326 0.0 9.7 0.00 0.00 0.00 46 1016.5
20260502233051 8 360 0.0 6.4 0.00 0.00 0.00 45 1016.6
20260502231549 8 315 1.6 14.5 0.00 0.00 0.00 44 1016.6
20260502230047 9 360 1.6 11.3 0.00 0.00 0.00 43 1016.5
20260502224547 8 360 0.0 6.4 0.00 0.00 0.00 46 1016.6
20260502223045 8 288 1.6 12.9 0.00 0.00 0.00 47 1016.7
20260502221544 8 308 1.6 12.9 0.00 0.00 0.00 47 1016.8
20260502220046 8 320 1.6 11.3 0.00 0.00 0.00 46 1016.7
20260502214543 8 318 1.6 9.7 0.00 0.00 0.00 47 1016.7
20260502213041 8 327 3.2 14.5 0.00 0.00 0.00 48 1016.6
20260502211547 8 340 1.6 9.7 0.00 0.00 0.00 47 1016.7
20260502210038 8 360 1.6 9.7 0.00 0.00 0.00 47 1016.7
20260502204538 8 330 0.0 9.7 0.00 0.00 0.00 49 1016.8
20260502203036 8 337 0.0 9.7 0.00 0.00 0.00 49 1016.9
20260502201537 8 309 3.2 12.9 0.00 0.00 0.00 47 1017.0
20260502200039 8 311 3.2 8.0 0.00 0.00 0.00 46 1017.1
20260502194533 8 360 0.0 12.9 0.00 0.00 0.00 45 1017.3
20260502193030 8 360 0.0 19.3 0.00 0.00 0.00 48 1017.4
20260502191527 8 13 0.0 14.5 0.00 0.00 0.00 46 1017.4
20260502190027 8 360 4.8 11.3 0.00 0.00 0.00 44 1017.6
20260502184532 8 209 0.0 9.7 0.00 0.00 0.00 47 1017.6
20260502183025 8 318 0.0 19.3 0.00 0.00 0.00 45 1017.7
20260502181521 7 360 3.2 17.7 0.00 0.00 0.00 49 1017.8